owner,sensor,date,latitude,longitude,air_temperature,qcFlag 
COMPS,ioos:station:USF.COMPS:ARP:1,2009-03-01T00:00:00Z,28.4330,-82.6670,20.46,1111122 
COMPS,ioos:station:USF.COMPS:ARP:1,2009-03-01T00:06:00Z,28.4330,-82.6670,20.54,1111122 
COMPS,ioos:station:USF.COMPS:ARP:1,2009-03-01T00:12:00Z,28.4330,-82.6670,20.53,1111122 
COMPS,ioos:station:USF.COMPS:ARP:1,2009-03-01T00:18:00Z,28.4330,-82.6670,20.53,1111122 
COMPS,ioos:station:USF.COMPS:ARP:1,2009-03-01T00:24:00Z,28.4330,-82.6670,20.53,1111122 
COMPS,ioos:station:USF.COMPS:ARP:1,2009-03-01T00:30:00Z,28.4330,-82.6670,20.55,1111122 
COMPS,ioos:station:USF.COMPS:ARP:1,2009-03-01T00:36:00Z,28.4330,-82.6670,20.56,1111122 
COMPS,ioos:station:USF.COMPS:ARP:1,2009-03-01T00:42:00Z,28.4330,-82.6670,20.65,1111122 
COMPS,ioos:station:USF.COMPS:ARP:1,2009-03-01T00:48:00Z,28.4330,-82.6670,20.65,1111122 
COMPS,ioos:station:USF.COMPS:ARP:1,2009-03-01T00:54:00Z,28.4330,-82.6670,20.74,1111122 
COMPS,ioos:station:USF.COMPS:ARP:1,2009-03-01T01:00:00Z,28.4330,-82.6670,20.65,1111122 
COMPS,ioos:station:USF.COMPS:ARP:1,2009-03-01T01:06:00Z,28.4330,-82.6670,20.73,1111122 
COMPS,ioos:station:USF.COMPS:ARP:1,2009-03-01T01:12:00Z,28.4330,-82.6670,20.8,1111122 
COMPS,ioos:station:USF.COMPS:ARP:1,2009-03-01T01:18:00Z,28.4330,-82.6670,20.77,1111122 
COMPS,ioos:station:USF.COMPS:ARP:1,2009-03-01T01:24:00Z,28.4330,-82.6670,20.77,1111122 
COMPS,ioos:station:USF.COMPS:ARP:1,2009-03-01T01:30:00Z,28.4330,-82.6670,20.65,1111122 
COMPS,ioos:station:USF.COMPS:ARP:1,2009-03-01T01:36:00Z,28.4330,-82.6670,20.65,1111122 
COMPS,ioos:station:USF.COMPS:ARP:1,2009-03-01T01:42:00Z,28.4330,-82.6670,20.55,1111122 
COMPS,ioos:station:USF.COMPS:ARP:1,2009-03-01T01:48:00Z,28.4330,-82.6670,20.57,1111122 
COMPS,ioos:station:USF.COMPS:ARP:1,2009-03-01T01:54:00Z,28.4330,-82.6670,20.72,1111122 
COMPS,ioos:station:USF.COMPS:ARP:1,2009-03-01T02:00:00Z,28.4330,-82.6670,20.54,1111122 
COMPS,ioos:station:USF.COMPS:ARP:1,2009-03-01T02:06:00Z,28.4330,-82.6670,20.54,1111122 
COMPS,ioos:station:USF.COMPS:ARP:1,2009-03-01T02:12:00Z,28.4330,-82.6670,20.54,1111122 
COMPS,ioos:station:USF.COMPS:ARP:1,2009-03-01T02:18:00Z,28.4330,-82.6670,20.52,1111122 
COMPS,ioos:station:USF.COMPS:ARP:1,2009-03-01T02:24:00Z,28.4330,-82.6670,20.44,1111122 
COMPS,ioos:station:USF.COMPS:ARP:1,2009-03-01T02:30:00Z,28.4330,-82.6670,20.41,1111122 
COMPS,ioos:station:USF.COMPS:ARP:1,2009-03-01T02:36:00Z,28.4330,-82.6670,20.37,1111122 
COMPS,ioos:station:USF.COMPS:ARP:1,2009-03-01T02:42:00Z,28.4330,-82.6670,20.4,1111122 
COMPS,ioos:station:USF.COMPS:ARP:1,2009-03-01T02:48:00Z,28.4330,-82.6670,20.4,1111122 
COMPS,ioos:station:USF.COMPS:ARP:1,2009-03-01T02:54:00Z,28.4330,-82.6670,20.57,1111122 
COMPS,ioos:station:USF.COMPS:ARP:1,2009-03-01T03:00:00Z,28.4330,-82.6670,20.39,1111122 
COMPS,ioos:station:USF.COMPS:ARP:1,2009-03-01T03:06:00Z,28.4330,-82.6670,20.38,1111122 
COMPS,ioos:station:USF.COMPS:ARP:1,2009-03-01T03:12:00Z,28.4330,-82.6670,20.34,1111122 
COMPS,ioos:station:USF.COMPS:ARP:1,2009-03-01T03:18:00Z,28.4330,-82.6670,20.27,1111122 
COMPS,ioos:station:USF.COMPS:ARP:1,2009-03-01T03:24:00Z,28.4330,-82.6670,20.26,1111122 
COMPS,ioos:station:USF.COMPS:ARP:1,2009-03-01T03:30:00Z,28.4330,-82.6670,20.27,1111122 
COMPS,ioos:station:USF.COMPS:ARP:1,2009-03-01T03:36:00Z,28.4330,-82.6670,20.2,1111122 
COMPS,ioos:station:USF.COMPS:ARP:1,2009-03-01T03:42:00Z,28.4330,-82.6670,20.14,1111122 
COMPS,ioos:station:USF.COMPS:ARP:1,2009-03-01T03:48:00Z,28.4330,-82.6670,20.12,1111122 
COMPS,ioos:station:USF.COMPS:ARP:1,2009-03-01T03:54:00Z,28.4330,-82.6670,20.26,1111122 
COMPS,ioos:station:USF.COMPS:ARP:1,2009-03-01T04:00:00Z,28.4330,-82.6670,20.13,1111122 
COMPS,ioos:station:USF.COMPS:ARP:1,2009-03-01T04:06:00Z,28.4330,-82.6670,20.13,1111122 
COMPS,ioos:station:USF.COMPS:ARP:1,2009-03-01T04:12:00Z,28.4330,-82.6670,20.02,1111122 
COMPS,ioos:station:USF.COMPS:ARP:1,2009-03-01T04:18:00Z,28.4330,-82.6670,19.99,1111122 
COMPS,ioos:station:USF.COMPS:ARP:1,2009-03-01T04:24:00Z,28.4330,-82.6670,19.98,1111122 
COMPS,ioos:station:USF.COMPS:ARP:1,2009-03-01T04:30:00Z,28.4330,-82.6670,19.87,1111122 
COMPS,ioos:station:USF.COMPS:ARP:1,2009-03-01T04:36:00Z,28.4330,-82.6670,19.88,1111122 
COMPS,ioos:station:USF.COMPS:ARP:1,2009-03-01T04:42:00Z,28.4330,-82.6670,19.87,1111122 
COMPS,ioos:station:USF.COMPS:ARP:1,2009-03-01T04:48:00Z,28.4330,-82.6670,19.87,1111122 
COMPS,ioos:station:USF.COMPS:ARP:1,2009-03-01T04:54:00Z,28.4330,-82.6670,19.97,1111122 
COMPS,ioos:station:USF.COMPS:ARP:1,2009-03-01T05:00:00Z,28.4330,-82.6670,19.94,1111122 
COMPS,ioos:station:USF.COMPS:ARP:1,2009-03-01T05:06:00Z,28.4330,-82.6670,19.99,1111122 
COMPS,ioos:station:USF.COMPS:ARP:1,2009-03-01T05:12:00Z,28.4330,-82.6670,20.01,1111122 
COMPS,ioos:station:USF.COMPS:ARP:1,2009-03-01T05:18:00Z,28.4330,-82.6670,20.01,1111122 
COMPS,ioos:station:USF.COMPS:ARP:1,2009-03-01T05:24:00Z,28.4330,-82.6670,20.11,1111122 
COMPS,ioos:station:USF.COMPS:ARP:1,2009-03-01T05:30:00Z,28.4330,-82.6670,20.17,1111122 
COMPS,ioos:station:USF.COMPS:ARP:1,2009-03-01T05:36:00Z,28.4330,-82.6670,20.21,1111122 
COMPS,ioos:station:USF.COMPS:ARP:1,2009-03-01T05:42:00Z,28.4330,-82.6670,20.29,1111122 
COMPS,ioos:station:USF.COMPS:ARP:1,2009-03-01T05:48:00Z,28.4330,-82.6670,20.4,1111122 
COMPS,ioos:station:USF.COMPS:ARP:1,2009-03-01T05:54:00Z,28.4330,-82.6670,20.49,1111122 
COMPS,ioos:station:USF.COMPS:ARP:1,2009-03-01T06:00:00Z,28.4330,-82.6670,20.42,1111122 
COMPS,ioos:station:USF.COMPS:ARP:1,2009-03-01T06:06:00Z,28.4330,-82.6670,20.41,1111122 
COMPS,ioos:station:USF.COMPS:ARP:1,2009-03-01T06:12:00Z,28.4330,-82.6670,20.42,1111122 
COMPS,ioos:station:USF.COMPS:ARP:1,2009-03-01T06:18:00Z,28.4330,-82.6670,20.49,1111122 
COMPS,ioos:station:USF.COMPS:ARP:1,2009-03-01T06:24:00Z,28.4330,-82.6670,20.54,1111122 
COMPS,ioos:station:USF.COMPS:ARP:1,2009-03-01T06:30:00Z,28.4330,-82.6670,20.56,1111122 
COMPS,ioos:station:USF.COMPS:ARP:1,2009-03-01T06:36:00Z,28.4330,-82.6670,20.56,1111122 
COMPS,ioos:station:USF.COMPS:ARP:1,2009-03-01T06:42:00Z,28.4330,-82.6670,20.56,1111122 
COMPS,ioos:station:USF.COMPS:ARP:1,2009-03-01T06:48:00Z,28.4330,-82.6670,20.62,1111122 
COMPS,ioos:station:USF.COMPS:ARP:1,2009-03-01T06:54:00Z,28.4330,-82.6670,20.69,1111122 
COMPS,ioos:station:USF.COMPS:ARP:1,2009-03-01T07:00:00Z,28.4330,-82.6670,20.58,1111122 
COMPS,ioos:station:USF.COMPS:ARP:1,2009-03-01T07:06:00Z,28.4330,-82.6670,20.56,1111122 
COMPS,ioos:station:USF.COMPS:ARP:1,2009-03-01T07:12:00Z,28.4330,-82.6670,20.64,1111122 
COMPS,ioos:station:USF.COMPS:ARP:1,2009-03-01T07:18:00Z,28.4330,-82.6670,20.65,1111122 
COMPS,ioos:station:USF.COMPS:ARP:1,2009-03-01T07:24:00Z,28.4330,-82.6670,20.55,1111122 
COMPS,ioos:station:USF.COMPS:ARP:1,2009-03-01T07:30:00Z,28.4330,-82.6670,20.55,1111122 
COMPS,ioos:station:USF.COMPS:ARP:1,2009-03-01T07:36:00Z,28.4330,-82.6670,20.54,1111122 
COMPS,ioos:station:USF.COMPS:ARP:1,2009-03-01T07:42:00Z,28.4330,-82.6670,20.49,1111122 
COMPS,ioos:station:USF.COMPS:ARP:1,2009-03-01T07:48:00Z,28.4330,-82.6670,20.42,1111122 
COMPS,ioos:station:USF.COMPS:ARP:1,2009-03-01T07:54:00Z,28.4330,-82.6670,20.57,1111122 
COMPS,ioos:station:USF.COMPS:ARP:1,2009-03-01T08:00:00Z,28.4330,-82.6670,20.45,1111122 
COMPS,ioos:station:USF.COMPS:ARP:1,2009-03-01T08:06:00Z,28.4330,-82.6670,20.42,1111122 
COMPS,ioos:station:USF.COMPS:ARP:1,2009-03-01T08:12:00Z,28.4330,-82.6670,20.34,1111122 
COMPS,ioos:station:USF.COMPS:ARP:1,2009-03-01T08:18:00Z,28.4330,-82.6670,20.26,1111122 
COMPS,ioos:station:USF.COMPS:ARP:1,2009-03-01T08:24:00Z,28.4330,-82.6670,20.21,1111122 
COMPS,ioos:station:USF.COMPS:ARP:1,2009-03-01T08:30:00Z,28.4330,-82.6670,20.19,1111122 
COMPS,ioos:station:USF.COMPS:ARP:1,2009-03-01T08:36:00Z,28.4330,-82.6670,20.16,1111122 
COMPS,ioos:station:USF.COMPS:ARP:1,2009-03-01T08:42:00Z,28.4330,-82.6670,20.14,1111122 
COMPS,ioos:station:USF.COMPS:ARP:1,2009-03-01T08:48:00Z,28.4330,-82.6670,20.15,1111122 
COMPS,ioos:station:USF.COMPS:ARP:1,2009-03-01T08:54:00Z,28.4330,-82.6670,20.18,1111122 
COMPS,ioos:station:USF.COMPS:ARP:1,2009-03-01T09:00:00Z,28.4330,-82.6670,20.14,1111122 
COMPS,ioos:station:USF.COMPS:ARP:1,2009-03-01T09:06:00Z,28.4330,-82.6670,20.26,1111122 
COMPS,ioos:station:USF.COMPS:ARP:1,2009-03-01T09:12:00Z,28.4330,-82.6670,20.31,1111122 
COMPS,ioos:station:USF.COMPS:ARP:1,2009-03-01T09:18:00Z,28.4330,-82.6670,20.33,1111122 
COMPS,ioos:station:USF.COMPS:ARP:1,2009-03-01T09:24:00Z,28.4330,-82.6670,20.37,1111122 
COMPS,ioos:station:USF.COMPS:ARP:1,2009-03-01T09:30:00Z,28.4330,-82.6670,20.29,1111122 
COMPS,ioos:station:USF.COMPS:ARP:1,2009-03-01T09:36:00Z,28.4330,-82.6670,20.29,1111122 
COMPS,ioos:station:USF.COMPS:ARP:1,2009-03-01T09:42:00Z,28.4330,-82.6670,20.28,1111122 
COMPS,ioos:station:USF.COMPS:ARP:1,2009-03-01T09:48:00Z,28.4330,-82.6670,20.37,1111122 
COMPS,ioos:station:USF.COMPS:ARP:1,2009-03-01T09:54:00Z,28.4330,-82.6670,20.48,1111122 
COMPS,ioos:station:USF.COMPS:ARP:1,2009-03-01T10:00:00Z,28.4330,-82.6670,20.41,1111122 
COMPS,ioos:station:USF.COMPS:ARP:1,2009-03-01T10:06:00Z,28.4330,-82.6670,20.49,1111122 
COMPS,ioos:station:USF.COMPS:ARP:1,2009-03-01T10:12:00Z,28.4330,-82.6670,20.55,1111122 
COMPS,ioos:station:USF.COMPS:ARP:1,2009-03-01T10:18:00Z,28.4330,-82.6670,20.54,1111122 
COMPS,ioos:station:USF.COMPS:ARP:1,2009-03-01T10:24:00Z,28.4330,-82.6670,20.67,1111122 
COMPS,ioos:station:USF.COMPS:ARP:1,2009-03-01T10:30:00Z,28.4330,-82.6670,20.67,1111122 
COMPS,ioos:station:USF.COMPS:ARP:1,2009-03-01T10:36:00Z,28.4330,-82.6670,20.63,1111122 
COMPS,ioos:station:USF.COMPS:ARP:1,2009-03-01T10:42:00Z,28.4330,-82.6670,20.68,1111122 
COMPS,ioos:station:USF.COMPS:ARP:1,2009-03-01T10:48:00Z,28.4330,-82.6670,20.58,1111122 
COMPS,ioos:station:USF.COMPS:ARP:1,2009-03-01T10:54:00Z,28.4330,-82.6670,20.72,1111122 
COMPS,ioos:station:USF.COMPS:ARP:1,2009-03-01T11:00:00Z,28.4330,-82.6670,20.68,1111122 
COMPS,ioos:station:USF.COMPS:ARP:1,2009-03-01T11:06:00Z,28.4330,-82.6670,20.67,1111122 
COMPS,ioos:station:USF.COMPS:ARP:1,2009-03-01T11:12:00Z,28.4330,-82.6670,20.73,1111122 
COMPS,ioos:station:USF.COMPS:ARP:1,2009-03-01T11:18:00Z,28.4330,-82.6670,20.81,1111122 
COMPS,ioos:station:USF.COMPS:ARP:1,2009-03-01T11:24:00Z,28.4330,-82.6670,20.83,1111122 
COMPS,ioos:station:USF.COMPS:ARP:1,2009-03-01T11:30:00Z,28.4330,-82.6670,20.82,1111122 
COMPS,ioos:station:USF.COMPS:ARP:1,2009-03-01T11:36:00Z,28.4330,-82.6670,20.86,1111122 
COMPS,ioos:station:USF.COMPS:ARP:1,2009-03-01T11:42:00Z,28.4330,-82.6670,20.94,1111122 
COMPS,ioos:station:USF.COMPS:ARP:1,2009-03-01T11:48:00Z,28.4330,-82.6670,20.95,1111122 
COMPS,ioos:station:USF.COMPS:ARP:1,2009-03-01T11:54:00Z,28.4330,-82.6670,18.97,1111122 
COMPS,ioos:station:USF.COMPS:ARP:1,2009-03-01T12:00:00Z,28.4330,-82.6670,16.53,1111122 
COMPS,ioos:station:USF.COMPS:ARP:1,2009-03-01T12:06:00Z,28.4330,-82.6670,16.56,1111122 
COMPS,ioos:station:USF.COMPS:ARP:1,2009-03-01T12:12:00Z,28.4330,-82.6670,16.4,1111122 
COMPS,ioos:station:USF.COMPS:ARP:1,2009-03-01T12:18:00Z,28.4330,-82.6670,16.0,1111122 
COMPS,ioos:station:USF.COMPS:ARP:1,2009-03-01T12:24:00Z,28.4330,-82.6670,15.87,1111122 
COMPS,ioos:station:USF.COMPS:ARP:1,2009-03-01T12:30:00Z,28.4330,-82.6670,15.85,1111122 
COMPS,ioos:station:USF.COMPS:ARP:1,2009-03-01T12:36:00Z,28.4330,-82.6670,15.91,1111122 
COMPS,ioos:station:USF.COMPS:ARP:1,2009-03-01T12:42:00Z,28.4330,-82.6670,15.49,1111122 
COMPS,ioos:station:USF.COMPS:ARP:1,2009-03-01T12:48:00Z,28.4330,-82.6670,15.41,1111122 
COMPS,ioos:station:USF.COMPS:ARP:1,2009-03-01T12:54:00Z,28.4330,-82.6670,15.17,1111122 
COMPS,ioos:station:USF.COMPS:ARP:1,2009-03-01T13:00:00Z,28.4330,-82.6670,14.96,1111122 
COMPS,ioos:station:USF.COMPS:ARP:1,2009-03-01T13:06:00Z,28.4330,-82.6670,14.89,1111122 
COMPS,ioos:station:USF.COMPS:ARP:1,2009-03-01T13:12:00Z,28.4330,-82.6670,14.77,1111122 
COMPS,ioos:station:USF.COMPS:ARP:1,2009-03-01T13:18:00Z,28.4330,-82.6670,14.61,1111122 
COMPS,ioos:station:USF.COMPS:ARP:1,2009-03-01T13:24:00Z,28.4330,-82.6670,14.56,1111122 
COMPS,ioos:station:USF.COMPS:ARP:1,2009-03-01T13:30:00Z,28.4330,-82.6670,14.27,1111122 
COMPS,ioos:station:USF.COMPS:ARP:1,2009-03-01T13:36:00Z,28.4330,-82.6670,13.92,1111122 
COMPS,ioos:station:USF.COMPS:ARP:1,2009-03-01T13:42:00Z,28.4330,-82.6670,13.56,1111122 
COMPS,ioos:station:USF.COMPS:ARP:1,2009-03-01T13:48:00Z,28.4330,-82.6670,12.92,1111122 
COMPS,ioos:station:USF.COMPS:ARP:1,2009-03-01T13:54:00Z,28.4330,-82.6670,12.77,1111122 
COMPS,ioos:station:USF.COMPS:ARP:1,2009-03-01T14:00:00Z,28.4330,-82.6670,12.68,1111122 
COMPS,ioos:station:USF.COMPS:ARP:1,2009-03-01T14:06:00Z,28.4330,-82.6670,12.27,1111122 
COMPS,ioos:station:USF.COMPS:ARP:1,2009-03-01T14:12:00Z,28.4330,-82.6670,11.97,1111122 
COMPS,ioos:station:USF.COMPS:ARP:1,2009-03-01T14:18:00Z,28.4330,-82.6670,12.11,1111122 
COMPS,ioos:station:USF.COMPS:ARP:1,2009-03-01T14:24:00Z,28.4330,-82.6670,12.11,1111122 
COMPS,ioos:station:USF.COMPS:ARP:1,2009-03-01T14:30:00Z,28.4330,-82.6670,12.34,1111122 
COMPS,ioos:station:USF.COMPS:ARP:1,2009-03-01T14:36:00Z,28.4330,-82.6670,12.61,1111122 
COMPS,ioos:station:USF.COMPS:ARP:1,2009-03-01T14:42:00Z,28.4330,-82.6670,12.55,1111122 
COMPS,ioos:station:USF.COMPS:ARP:1,2009-03-01T14:48:00Z,28.4330,-82.6670,12.61,1111122 
COMPS,ioos:station:USF.COMPS:ARP:1,2009-03-01T14:54:00Z,28.4330,-82.6670,12.52,1111122 
COMPS,ioos:station:USF.COMPS:ARP:1,2009-03-01T15:00:00Z,28.4330,-82.6670,12.59,1111122 
COMPS,ioos:station:USF.COMPS:ARP:1,2009-03-01T15:06:00Z,28.4330,-82.6670,12.8,1111122 
COMPS,ioos:station:USF.COMPS:ARP:1,2009-03-01T15:12:00Z,28.4330,-82.6670,12.87,1111122 
COMPS,ioos:station:USF.COMPS:ARP:1,2009-03-01T15:18:00Z,28.4330,-82.6670,12.71,1111122 
COMPS,ioos:station:USF.COMPS:ARP:1,2009-03-01T15:24:00Z,28.4330,-82.6670,12.81,1111122 
COMPS,ioos:station:USF.COMPS:ARP:1,2009-03-01T15:30:00Z,28.4330,-82.6670,12.7,1111122 
COMPS,ioos:station:USF.COMPS:ARP:1,2009-03-01T15:36:00Z,28.4330,-82.6670,12.61,1111122 
COMPS,ioos:station:USF.COMPS:ARP:1,2009-03-01T15:42:00Z,28.4330,-82.6670,12.69,1111122 
COMPS,ioos:station:USF.COMPS:ARP:1,2009-03-01T15:48:00Z,28.4330,-82.6670,12.76,1111122 
COMPS,ioos:station:USF.COMPS:ARP:1,2009-03-01T15:54:00Z,28.4330,-82.6670,12.97,1111122 
COMPS,ioos:station:USF.COMPS:ARP:1,2009-03-01T16:00:00Z,28.4330,-82.6670,12.56,1111122 
COMPS,ioos:station:USF.COMPS:ARP:1,2009-03-01T16:06:00Z,28.4330,-82.6670,12.85,1111122 
COMPS,ioos:station:USF.COMPS:ARP:1,2009-03-01T16:12:00Z,28.4330,-82.6670,13.05,1111122 
COMPS,ioos:station:USF.COMPS:ARP:1,2009-03-01T16:18:00Z,28.4330,-82.6670,12.71,1111122 
COMPS,ioos:station:USF.COMPS:ARP:1,2009-03-01T16:24:00Z,28.4330,-82.6670,12.71,1111122 
COMPS,ioos:station:USF.COMPS:ARP:1,2009-03-01T16:30:00Z,28.4330,-82.6670,12.81,1111122 
COMPS,ioos:station:USF.COMPS:ARP:1,2009-03-01T16:36:00Z,28.4330,-82.6670,13.06,1111122 
COMPS,ioos:station:USF.COMPS:ARP:1,2009-03-01T16:42:00Z,28.4330,-82.6670,13.02,1111122 
COMPS,ioos:station:USF.COMPS:ARP:1,2009-03-01T16:48:00Z,28.4330,-82.6670,12.94,1111122 
COMPS,ioos:station:USF.COMPS:ARP:1,2009-03-01T16:54:00Z,28.4330,-82.6670,12.95,1111122 
COMPS,ioos:station:USF.COMPS:ARP:1,2009-03-01T17:00:00Z,28.4330,-82.6670,13.09,1111122 
COMPS,ioos:station:USF.COMPS:ARP:1,2009-03-01T17:06:00Z,28.4330,-82.6670,13.01,1111122 
COMPS,ioos:station:USF.COMPS:ARP:1,2009-03-01T17:12:00Z,28.4330,-82.6670,12.96,1111122 
COMPS,ioos:station:USF.COMPS:ARP:1,2009-03-01T17:18:00Z,28.4330,-82.6670,13.08,1111122 
COMPS,ioos:station:USF.COMPS:ARP:1,2009-03-01T17:24:00Z,28.4330,-82.6670,13.02,1111122 
COMPS,ioos:station:USF.COMPS:ARP:1,2009-03-01T17:30:00Z,28.4330,-82.6670,13.14,1111122 
COMPS,ioos:station:USF.COMPS:ARP:1,2009-03-01T17:36:00Z,28.4330,-82.6670,12.84,1111122 
COMPS,ioos:station:USF.COMPS:ARP:1,2009-03-01T17:42:00Z,28.4330,-82.6670,12.72,1111122 
COMPS,ioos:station:USF.COMPS:ARP:1,2009-03-01T17:48:00Z,28.4330,-82.6670,12.67,1111122 
COMPS,ioos:station:USF.COMPS:ARP:1,2009-03-01T17:54:00Z,28.4330,-82.6670,12.63,1111122 
COMPS,ioos:station:USF.COMPS:ARP:1,2009-03-01T18:00:00Z,28.4330,-82.6670,12.68,1111122 
COMPS,ioos:station:USF.COMPS:ARP:1,2009-03-01T18:06:00Z,28.4330,-82.6670,12.5,1111122 
COMPS,ioos:station:USF.COMPS:ARP:1,2009-03-01T18:12:00Z,28.4330,-82.6670,12.29,1111122 
COMPS,ioos:station:USF.COMPS:ARP:1,2009-03-01T18:18:00Z,28.4330,-82.6670,12.41,1111122 
COMPS,ioos:station:USF.COMPS:ARP:1,2009-03-01T18:24:00Z,28.4330,-82.6670,12.57,1111122 
COMPS,ioos:station:USF.COMPS:ARP:1,2009-03-01T18:30:00Z,28.4330,-82.6670,12.57,1111122 
COMPS,ioos:station:USF.COMPS:ARP:1,2009-03-01T18:36:00Z,28.4330,-82.6670,12.54,1111122 
COMPS,ioos:station:USF.COMPS:ARP:1,2009-03-01T18:42:00Z,28.4330,-82.6670,12.32,1111122 
COMPS,ioos:station:USF.COMPS:ARP:1,2009-03-01T18:48:00Z,28.4330,-82.6670,12.28,1111122 
COMPS,ioos:station:USF.COMPS:ARP:1,2009-03-01T18:54:00Z,28.4330,-82.6670,12.14,1111122 
COMPS,ioos:station:USF.COMPS:ARP:1,2009-03-01T19:00:00Z,28.4330,-82.6670,12.14,1111122 
COMPS,ioos:station:USF.COMPS:ARP:1,2009-03-01T19:06:00Z,28.4330,-82.6670,12.5,1111122 
COMPS,ioos:station:USF.COMPS:ARP:1,2009-03-01T19:12:00Z,28.4330,-82.6670,12.43,1111122 
COMPS,ioos:station:USF.COMPS:ARP:1,2009-03-01T19:18:00Z,28.4330,-82.6670,12.36,1111122 
COMPS,ioos:station:USF.COMPS:ARP:1,2009-03-01T19:24:00Z,28.4330,-82.6670,12.08,1111122 
COMPS,ioos:station:USF.COMPS:ARP:1,2009-03-01T19:30:00Z,28.4330,-82.6670,12.04,1111122 
COMPS,ioos:station:USF.COMPS:ARP:1,2009-03-01T19:36:00Z,28.4330,-82.6670,12.07,1111122 
COMPS,ioos:station:USF.COMPS:ARP:1,2009-03-01T19:42:00Z,28.4330,-82.6670,12.05,1111122 
COMPS,ioos:station:USF.COMPS:ARP:1,2009-03-01T19:48:00Z,28.4330,-82.6670,12.08,1111122 
COMPS,ioos:station:USF.COMPS:ARP:1,2009-03-01T19:54:00Z,28.4330,-82.6670,12.22,1111122 
COMPS,ioos:station:USF.COMPS:ARP:1,2009-03-01T20:00:00Z,28.4330,-82.6670,12.24,1111122 
COMPS,ioos:station:USF.COMPS:ARP:1,2009-03-01T20:06:00Z,28.4330,-82.6670,12.23,1111122 
COMPS,ioos:station:USF.COMPS:ARP:1,2009-03-01T20:12:00Z,28.4330,-82.6670,12.3,1111122 
COMPS,ioos:station:USF.COMPS:ARP:1,2009-03-01T20:18:00Z,28.4330,-82.6670,12.8,1111122 
COMPS,ioos:station:USF.COMPS:ARP:1,2009-03-01T20:24:00Z,28.4330,-82.6670,12.5,1111122 
COMPS,ioos:station:USF.COMPS:ARP:1,2009-03-01T20:30:00Z,28.4330,-82.6670,12.33,1111122 
COMPS,ioos:station:USF.COMPS:ARP:1,2009-03-01T20:36:00Z,28.4330,-82.6670,12.28,1111122 
COMPS,ioos:station:USF.COMPS:ARP:1,2009-03-01T20:42:00Z,28.4330,-82.6670,12.44,1111122 
COMPS,ioos:station:USF.COMPS:ARP:1,2009-03-01T20:48:00Z,28.4330,-82.6670,12.31,1111122 
COMPS,ioos:station:USF.COMPS:ARP:1,2009-03-01T20:54:00Z,28.4330,-82.6670,12.14,1111122 
COMPS,ioos:station:USF.COMPS:ARP:1,2009-03-01T21:00:00Z,28.4330,-82.6670,11.93,1111122 
COMPS,ioos:station:USF.COMPS:ARP:1,2009-03-01T21:06:00Z,28.4330,-82.6670,11.82,1111122 
COMPS,ioos:station:USF.COMPS:ARP:1,2009-03-01T21:12:00Z,28.4330,-82.6670,11.93,1111122 
COMPS,ioos:station:USF.COMPS:ARP:1,2009-03-01T21:18:00Z,28.4330,-82.6670,11.82,1111122 
COMPS,ioos:station:USF.COMPS:ARP:1,2009-03-01T21:24:00Z,28.4330,-82.6670,11.77,1111122 
COMPS,ioos:station:USF.COMPS:ARP:1,2009-03-01T21:30:00Z,28.4330,-82.6670,11.81,1111122 
COMPS,ioos:station:USF.COMPS:ARP:1,2009-03-01T21:36:00Z,28.4330,-82.6670,11.91,1111122 
COMPS,ioos:station:USF.COMPS:ARP:1,2009-03-01T21:42:00Z,28.4330,-82.6670,11.9,1111122 
COMPS,ioos:station:USF.COMPS:ARP:1,2009-03-01T21:48:00Z,28.4330,-82.6670,12.02,1111122 
COMPS,ioos:station:USF.COMPS:ARP:1,2009-03-01T21:54:00Z,28.4330,-82.6670,12.23,1111122 
COMPS,ioos:station:USF.COMPS:ARP:1,2009-03-01T22:00:00Z,28.4330,-82.6670,12.13,1111122 
COMPS,ioos:station:USF.COMPS:ARP:1,2009-03-01T22:06:00Z,28.4330,-82.6670,11.87,1111122 
COMPS,ioos:station:USF.COMPS:ARP:1,2009-03-01T22:12:00Z,28.4330,-82.6670,12.13,1111122 
COMPS,ioos:station:USF.COMPS:ARP:1,2009-03-01T22:18:00Z,28.4330,-82.6670,11.98,1111122 
COMPS,ioos:station:USF.COMPS:ARP:1,2009-03-01T22:24:00Z,28.4330,-82.6670,11.95,1111122 
COMPS,ioos:station:USF.COMPS:ARP:1,2009-03-01T22:30:00Z,28.4330,-82.6670,11.95,1111122 
COMPS,ioos:station:USF.COMPS:ARP:1,2009-03-01T22:36:00Z,28.4330,-82.6670,12.01,1111122 
COMPS,ioos:station:USF.COMPS:ARP:1,2009-03-01T22:42:00Z,28.4330,-82.6670,11.85,1111122 
COMPS,ioos:station:USF.COMPS:ARP:1,2009-03-01T22:48:00Z,28.4330,-82.6670,11.74,1111122 
COMPS,ioos:station:USF.COMPS:ARP:1,2009-03-01T22:54:00Z,28.4330,-82.6670,12.05,1111122 
COMPS,ioos:station:USF.COMPS:ARP:1,2009-03-01T23:00:00Z,28.4330,-82.6670,11.76,1111122 
COMPS,ioos:station:USF.COMPS:ARP:1,2009-03-01T23:06:00Z,28.4330,-82.6670,11.79,1111122 
COMPS,ioos:station:USF.COMPS:ARP:1,2009-03-01T23:12:00Z,28.4330,-82.6670,12.01,1111122 
COMPS,ioos:station:USF.COMPS:ARP:1,2009-03-01T23:18:00Z,28.4330,-82.6670,12.13,1111122 
COMPS,ioos:station:USF.COMPS:ARP:1,2009-03-01T23:24:00Z,28.4330,-82.6670,11.9,1111122 
COMPS,ioos:station:USF.COMPS:ARP:1,2009-03-01T23:30:00Z,28.4330,-82.6670,11.61,1111122 
COMPS,ioos:station:USF.COMPS:ARP:1,2009-03-01T23:36:00Z,28.4330,-82.6670,11.8,1111122 
COMPS,ioos:station:USF.COMPS:ARP:1,2009-03-01T23:42:00Z,28.4330,-82.6670,11.98,1111122 
COMPS,ioos:station:USF.COMPS:ARP:1,2009-03-01T23:48:00Z,28.4330,-82.6670,11.85,1111122 
COMPS,ioos:station:USF.COMPS:ARP:1,2009-03-01T23:54:00Z,28.4330,-82.6670,11.9,1111122 
COMPS,ioos:station:USF.COMPS:ARP:1,2009-03-02T00:00:00Z,28.4330,-82.6670,11.79,1111122 
COMPS,ioos:station:USF.COMPS:ARP:1,2009-03-02T00:06:00Z,28.4330,-82.6670,11.81,1111122 
COMPS,ioos:station:USF.COMPS:ARP:1,2009-03-02T00:12:00Z,28.4330,-82.6670,11.73,1111122 
COMPS,ioos:station:USF.COMPS:ARP:1,2009-03-02T00:18:00Z,28.4330,-82.6670,11.61,1111122 
COMPS,ioos:station:USF.COMPS:ARP:1,2009-03-02T00:24:00Z,28.4330,-82.6670,11.36,1111122 
COMPS,ioos:station:USF.COMPS:ARP:1,2009-03-02T00:30:00Z,28.4330,-82.6670,11.33,1111122 
COMPS,ioos:station:USF.COMPS:ARP:1,2009-03-02T00:36:00Z,28.4330,-82.6670,11.29,1111122 
COMPS,ioos:station:USF.COMPS:ARP:1,2009-03-02T00:42:00Z,28.4330,-82.6670,11.03,1111122 
COMPS,ioos:station:USF.COMPS:ARP:1,2009-03-02T00:48:00Z,28.4330,-82.6670,11.27,1111122 
COMPS,ioos:station:USF.COMPS:ARP:1,2009-03-02T00:54:00Z,28.4330,-82.6670,11.27,1111122 
COMPS,ioos:station:USF.COMPS:ARP:1,2009-03-02T01:00:00Z,28.4330,-82.6670,11.16,1111122 
COMPS,ioos:station:USF.COMPS:ARP:1,2009-03-02T01:06:00Z,28.4330,-82.6670,11.24,1111122 
COMPS,ioos:station:USF.COMPS:ARP:1,2009-03-02T01:12:00Z,28.4330,-82.6670,11.23,1111122 
COMPS,ioos:station:USF.COMPS:ARP:1,2009-03-02T01:18:00Z,28.4330,-82.6670,11.23,1111122 
COMPS,ioos:station:USF.COMPS:ARP:1,2009-03-02T01:24:00Z,28.4330,-82.6670,11.31,1111122 
COMPS,ioos:station:USF.COMPS:ARP:1,2009-03-02T01:30:00Z,28.4330,-82.6670,11.19,1111122 
COMPS,ioos:station:USF.COMPS:ARP:1,2009-03-02T01:36:00Z,28.4330,-82.6670,11.12,1111122 
COMPS,ioos:station:USF.COMPS:ARP:1,2009-03-02T01:42:00Z,28.4330,-82.6670,10.84,1111122 
COMPS,ioos:station:USF.COMPS:ARP:1,2009-03-02T01:48:00Z,28.4330,-82.6670,10.74,1111122 
COMPS,ioos:station:USF.COMPS:ARP:1,2009-03-02T01:54:00Z,28.4330,-82.6670,10.71,1111122 
COMPS,ioos:station:USF.COMPS:ARP:1,2009-03-02T02:00:00Z,28.4330,-82.6670,10.59,1111122 
COMPS,ioos:station:USF.COMPS:ARP:1,2009-03-02T02:06:00Z,28.4330,-82.6670,10.69,1111122 
COMPS,ioos:station:USF.COMPS:ARP:1,2009-03-02T02:12:00Z,28.4330,-82.6670,10.46,1111122 
COMPS,ioos:station:USF.COMPS:ARP:1,2009-03-02T02:18:00Z,28.4330,-82.6670,10.55,1111122 
COMPS,ioos:station:USF.COMPS:ARP:1,2009-03-02T02:24:00Z,28.4330,-82.6670,10.44,1111122 
COMPS,ioos:station:USF.COMPS:ARP:1,2009-03-02T02:30:00Z,28.4330,-82.6670,10.47,1111122 
COMPS,ioos:station:USF.COMPS:ARP:1,2009-03-02T02:36:00Z,28.4330,-82.6670,10.28,1111122 
COMPS,ioos:station:USF.COMPS:ARP:1,2009-03-02T02:42:00Z,28.4330,-82.6670,10.36,1111122 
COMPS,ioos:station:USF.COMPS:ARP:1,2009-03-02T02:48:00Z,28.4330,-82.6670,10.21,1111122 
COMPS,ioos:station:USF.COMPS:ARP:1,2009-03-02T02:54:00Z,28.4330,-82.6670,10.18,1111122 
COMPS,ioos:station:USF.COMPS:ARP:1,2009-03-02T03:00:00Z,28.4330,-82.6670,10.33,1111122 
COMPS,ioos:station:USF.COMPS:ARP:1,2009-03-02T03:06:00Z,28.4330,-82.6670,10.17,1111122 